EHI
0 0 0 0 0 0 0 0 0 0 0 0 0 0 0 0 0 0 0 0 0 0 0 0 0 0 0 0 0 0 0 0 0 0 0 0 0 0
0 0 0 0 0 0 0 0 0 0 0 0 0 0 0 0 0 0 0 0 0 0 0 0 0 0 0 0 0 0 0 0 0 0 0 0 0 0
0 0 0 0 0 0 0 0 0 0 0 0 0 0 0 0 0 0 0 0 0 0 0 0 0 0 0 0 0 0 0 0 0 0 0 0 0 0
0 0 0 0 0 0 0 0 0 0 0 0 0 0 0 0 0 0 0 0 0 0 0 0 0 0 0 0 0 0 0 0 0 0 0 0 0 0
0 0 0 0 0 0 0 0 0 0 0 0 0 0 0 0 0 0 0 0 0 0 0 0 0 0 0 0 0 0 0 0 0 0 0 0 0 0
0 0 0 0 0 0 0 0 0 0 0 0 0 0 0 0 0 0 0 0 0 0 0 0 0 0 0 0 0 0 0 0 0 0 0 0 0 0
0 0 0 0 0 0 0 0 0 0 0 0 0 0 0 0 0 0 0 0 0 0 0 0 0 0 0 0 0 0 0 0 0 0 0 0 0 0
0 0 0 0 0 0 0 0 0 0 0 0 0 0 0 0 0 0 0 0 0 0 0 0 0 0 0 0 0 0 0 0 0 0 0 0 0 0
0 0 0 0 0 0 0 0 0 0 0 0 0 0 0 0 0 0 0 0 0 0 0 0 0 0 0 0 0 0 0 0 0 0 0 0 0 0
0 0 0 0 0 0 0 0 0 0 0 0 0 0 0 0 0 0 0 0 0 0 0 0 0 0 0 0 0 0 0 0 0 0 0 0 0 0
0 0 0 0 0 0 0 0 0 0 0 0 0 0 0 0 0 0 0 0 0 0 0 0 0 0 0 0 0 0 0 0 0 0 0 0 0 0
0 0 0 0 0 0 0 0 0 0 0 0 0 0 0 0 0 0 0 0 0 0 0 0 0 0 0 0 0 0 0 0 0 0 0 0 0 0
0 0 0 0 0 0 0 0 0 0 0 0 0 0 0 0 0 0 0 0 0 0 0 0 0 0 0 0 0 0 0 0 0 0 0 0 0 0
0 0 0 0 0 0 0 0 0 0 0 0 0 0 0 0 0 0 0 0 0 0 0 0 0 0 0 0 0 0 0 0 0 0 0 0 0 0
0 0 0 0 0 0 0 0 0 0 0 0 0 0 0 0 0 0 0 0 0 0 0 0 0 0 0 0 0 0 0 0 0 0 0 0 0 0
0 0 0 0 0 0 0 0 0 0 0 0 0 0 0 0 0 0 0 0 0 0 0 0 0 0 0 0 0 0 0 0 0 0 0 0 0 0
0 0 0 0 0 0 0 0 0 0 0 0 0 0 0 0 0 0 0 0 0 0 0 0 0 0 0 0 0 0 0 0 0 0 0 0 0 0
0 0 0 0 0 0 0 0 0 0 0 0 0 0 0 0 0 0 0 0 0 0 0 0 0 0 0 0 0 0 0 0 0 0 0 0 0 0
0 0 0 0 0 0 0 0 0 0 0 0 0 0 0 0 0 0 0 0 0 0 0 0 0 0 0 0 0 0 0 0 0 0 0 0 0 0
0 0 0 0 0 0 0 0 0 0 0 0 0 0 0 0 0 0 0 0 0 0 0 0 0 0 0 0 0 0 0 0 0 0 0 0 0 0
0 0 0 0 0 0 0 0 0 0 0 0 0 0 0 0 0 0 0 0 0 0 0 0 0 0 0 0 0 0 0 0 0 0 0 0 0 0
0 0 0 0 0 0 0 0 0 0 0 0 0 0 0 0 0 0 0 0 0 0 0 0 0 0 0 0 0 0 0 0 0 0 0 0 0 0
0 0 0 0 0 0 0 0 0 0 0 0 0 0 0 0 0 0 0 0 0 0 0 0 0 0 0 0 0 0 0 0 0 0 0 0 0 0
Wind_Speed
6 7 5 4 5 4 3 3 3 4 4 3 2 1 1 1 4 2 2 5 8 11 12 13 14 14 14 15 15 15 16 16 17 17 17 18 19 19
4 5 5 4 4 4 3 3 3 3 4 3 3 3 2 3 3 2 4 8 10 13 14 13 14 14 15 16 16 16 16 17 17 17 18 18 19 19
4 4 4 3 4 4 4 4 3 3 4 4 4 4 3 3 4 3 5 5 6 12 12 13 14 15 16 16 17 17 17 17 17 17 18 18 19 19
4 5 5 4 4 4 4 4 3 3 3 5 5 5 5 4 4 5 6 7 5 9 10 13 15 15 15 16 16 16 15 15 16 17 18 18 19 19
4 4 4 4 4 4 5 5 4 5 4 4 6 5 4 5 4 5 6 5 7 8 9 10 12 14 15 16 16 16 15 14 14 15 17 17 18 18
4 3 4 4 4 5 5 5 5 5 5 5 5 5 4 4 3 4 5 4 5 7 6 7 9 12 14 15 16 15 14 14 14 14 14 15 16 17
5 4 4 3 2 3 5 5 6 5 6 6 6 6 4 5 4 4 5 5 5 4 3 5 5 4 5 9 11 12 12 12 13 13 13 13 14 15
5 5 5 1 2 5 7 9 8 7 7 7 7 7 7 6 5 5 5 5 5 3 4 6 5 5 4 3 4 7 9 11 11 12 12 13 13 13
4 4 6 5 4 6 8 10 9 11 11 8 8 8 8 6 6 6 6 6 6 6 5 6 5 4 4 2 5 7 9 10 11 12 12 12 13 13
5 4 4 3 6 7 8 9 8 7 7 6 7 8 8 5 5 6 7 7 7 5 3 4 4 4 5 3 6 8 9 10 11 11 12 12 12 13
6 5 5 4 5 8 8 8 9 7 8 9 9 10 12 12 8 4 6 5 6 5 2 2 3 4 5 3 2 7 10 10 11 12 12 12 11 11
5 3 4 4 7 8 7 8 9 8 9 10 9 8 8 9 9 6 5 5 5 4 2 2 3 3 4 3 3 2 4 7 10 11 11 11 10 6
6 5 3 5 10 11 9 7 9 9 9 9 7 6 5 4 4 4 5 4 4 4 3 2 3 3 3 4 4 3 3 3 3 4 6 8 8 5
6 6 7 12 14 14 10 9 11 10 6 6 5 5 5 4 3 3 3 3 4 5 5 3 2 3 3 4 4 4 4 3 3 3 3 4 5 6
5 10 13 15 13 9 9 11 9 5 5 5 5 5 4 4 4 3 3 3 4 4 3 2 3 3 2 3 4 4 4 4 4 4 4 3 2 3
8 11 13 11 8 8 8 7 5 4 4 4 5 4 4 3 3 2 2 3 3 2 2 2 2 1 2 3 3 4 4 4 4 5 4 3 2 3
9 7 5 5 4 4 4 4 4 4 4 4 4 4 4 3 3 2 2 2 2 3 3 2 1 1 1 2 3 4 4 4 4 4 3 3 3 3
7 6 5 5 5 5 4 4 4 4 4 4 4 4 4 4 3 3 2 2 3 3 2 2 2 1 1 1 1 4 5 5 5 4 3 3 3 3
4 4 4 4 5 5 4 4 4 4 4 4 4 4 4 4 4 3 3 2 2 3 3 2 2 2 3 3 1 1 4 5 5 4 4 3 3 3
3 4 5 5 5 5 5 5 5 5 5 5 5 5 5 4 4 4 3 3 2 2 2 2 2 1 1 2 2 1 2 3 4 5 5 2 2 3
5 5 5 5 5 5 5 5 5 5 6 6 5 5 5 4 4 4 3 3 3 2 2 2 2 3 2 1 0 0 0 1 2 3 5 4 3 4
6 6 6 6 6 6 6 6 6 6 7 7 7 6 6 5 5 5 5 4 3 3 3 2 2 1 1 0 0 0 1 2 1 2 4 4 3 4
5 6 6 6 7 7 7 9 9 8 8 9 9 9 7 5 5 5 4 4 4 5 5 4 3 2 1 0 0 0 1 3 3 2 1 1 1 1
Wind_Direction
31 29 21 13 12 360 355 351 345 338 330 333 349 343 44 102 173 233 266 257 247 240 244 250 259 267 273 279 283 284 285 286 286 286 285 285 284 285
25 29 20 7 356 349 343 340 342 336 325 333 327 357 1 330 288 293 284 281 264 254 252 252 254 258 263 269 275 279 281 283 284 285 285 285 285 285
18 19 12 1 1 343 343 343 347 354 329 320 329 329 325 310 302 292 288 278 272 268 257 246 246 249 254 262 267 272 275 278 281 283 285 285 286 285
15 8 1 2 359 351 350 342 342 328 319 315 314 309 310 301 282 275 284 286 286 285 261 245 244 248 252 256 260 262 264 268 272 277 281 282 283 284
8 360 351 0 2 359 338 337 335 336 325 310 304 301 294 288 291 292 294 292 293 292 272 253 251 253 253 254 255 256 257 259 263 268 274 277 280 282
350 343 345 6 8 349 329 339 335 326 313 303 294 294 292 304 315 312 307 298 297 301 306 297 269 258 256 257 256 256 256 256 256 260 264 268 274 278
342 341 342 344 1 305 319 331 324 320 317 311 311 312 320 333 327 316 309 309 297 288 307 302 296 283 271 261 255 253 253 254 255 259 262 264 267 270
339 338 326 298 301 280 288 290 286 293 302 305 304 310 314 320 319 313 312 316 310 311 319 302 299 292 279 263 235 238 243 252 258 262 264 266 268 269
326 327 332 359 8 352 331 310 291 278 264 266 282 292 301 308 315 316 313 309 297 294 298 292 288 284 286 279 213 232 244 253 259 262 265 268 270 271
329 327 333 7 31 358 329 319 312 307 290 268 261 274 286 299 308 300 296 296 290 286 285 284 296 304 309 281 232 234 244 255 263 267 271 274 276 276
346 1 359 23 20 348 326 318 318 317 319 319 290 278 279 280 274 286 292 299 305 307 313 293 305 314 300 290 250 241 254 262 268 271 274 276 279 285
346 3 30 2 341 334 323 314 312 319 326 318 306 292 280 273 262 240 259 284 299 304 332 317 306 324 311 305 315 297 271 271 270 270 274 278 282 286
337 338 352 339 324 316 306 286 290 308 307 301 301 302 300 289 273 244 234 246 278 289 303 325 305 313 294 297 305 322 326 318 307 290 280 282 282 276
325 335 335 325 316 309 302 292 303 307 293 295 303 307 310 308 298 281 256 249 251 263 277 285 274 296 303 304 306 318 324 329 334 326 320 316 300 290
322 325 317 311 310 305 306 310 308 294 295 304 308 310 311 311 309 305 300 287 277 271 272 268 273 292 300 300 311 321 322 326 335 329 327 336 342 346
343 323 314 312 310 304 305 305 295 294 303 305 311 316 322 323 317 321 324 316 310 301 280 272 272 295 316 326 330 332 334 326 326 329 329 338 11 20
324 309 315 328 331 325 316 311 313 326 330 327 328 331 333 329 325 326 333 332 336 338 337 318 271 184 128 6 345 338 334 334 330 331 338 354 23 26
311 308 321 331 336 338 344 349 346 349 341 339 342 340 341 339 338 341 353 352 345 335 332 336 357 2 338 82 29 335 336 337 336 339 349 352 7 16
293 311 331 338 340 342 350 353 345 348 344 340 347 348 348 343 342 344 351 349 352 342 337 345 9 12 5 350 324 350 335 335 344 355 359 6 7 359
343 344 343 346 346 345 353 355 350 351 352 348 356 353 348 345 345 341 343 353 346 342 340 345 357 3 355 308 301 333 1 352 348 351 347 355 23 5
1 352 346 352 354 352 355 355 353 356 356 352 353 347 341 341 341 339 341 352 341 331 333 312 276 254 239 229 276 257 94 48 26 358 341 345 359 11
5 351 348 4 3 357 357 1 4 5 1 354 345 339 337 340 342 345 349 352 356 350 338 315 280 258 268 354 357 190 173 172 135 52 33 18 7 14
8 350 353 9 9 0 2 9 12 6 359 351 342 335 336 340 339 342 348 359 4 357 344 335 337 339 335 11 4 354 163 181 183 172 112 20 32 22